Location: Newark
(35.8967°N, 14.4625°E)
Time: 18:06:34
(UTC+00:00)

N. Korean satellite - Pass Details

Date: 24 November 2019
Orbit: 456 x 506 km, 97.2° (Epoch: 07 December)

Event Time Altitude Azimuth Distance (km) Brightness Sun altitude
Rises 04:02:32 0° 29° (NNE) 2,590 10.5 -20.9°
Reaches altitude 10° 04:05:08 10° 49° (NE) 1,693 9.8 -20.4°
Maximum altitude 04:07:43 18° 94° (E) 1,245 9.6 -19.9°
Drops below altitude 10° 04:10:16 10° 140° (SE) 1,663 10.0 -19.4°
Sets 04:12:47 0° 159° (SSE) 2,527 10.7 -18.9°
